Location: Gro�bocka
(50.8204°N, 11.9702°E)
Time: 01:42:22
(UTC+00:00)

Cosmos 1455 - Pass Details

Date: 29 October 2020
Orbit: 500 x 521 km, 82.5° (Epoch: 23 November)

Event Time Altitude Azimuth Distance (km) Brightness Sun altitude
Rises 17:52:52 0° 189° (S) 2,601 5.9 -19.6°
Reaches altitude 10° 17:54:58 10° 190° (S) 1,725 4.9 -20.0°
Maximum altitude 17:58:45 88° 278° (W) 520 2.1 -20.6°
Drops below altitude 10° 18:02:36 10° 10° (N) 1,754 4.8 -21.2°
Enters shadow 18:04:17 - 10° (N) 2,451 5.6 -21.4°
Exits shadow 18:04:52 - 11° (N) 2,693 5.8 -21.5°
